Idabel, OK

2:33 AM CDT on September 28, 2016 (GMT -0500)
Idabel

Weather History for K4O4 - January, 2012

Change the Weather History Date:

Sunday, January 8, 2012

  Actual Average (KDEQ) Record (KDEQ)
Temperature  
Mean Temperature 50 °F 42 °F  
Max Temperature 53 °F 53 °F 80 °F (1969)
Min Temperature 46 °F 30 °F 7 °F (1976)
Degree Days  
Heating Degree Days 16 24  
Month to date heating degree days 186  
Since 1 July heating degree days 1395  
Cooling Degree Days 0 0  
Month to date cooling degree days 0  
Year to date cooling degree days 0  
Moisture  
Dew Point 44 °F    
Average Humidity 78    
Maximum Humidity 93    
Minimum Humidity 66    
Precipitation  
Precipitation 0.00 in 0.11 in 2.98 in (1946)
Month to date precipitation 0.89  
Year to date precipitation 0.89  
Snow  
Snow 0.00 in - - ()
Month to date snowfall  
Since 1 July snowfall  
Snow Depth -    
Sea Level Pressure  
Sea Level Pressure 30.10 in    
Wind  
Wind Speed 8 mph (East)    
Max Wind Speed 13 mph    
Max Gust Speed 18 mph    
Visibility 8 miles    
Events      
T = Trace of Precipitation, MM = Missing Value Source: NWS Daily Summary

Daily Weather History Graph

Daily Weather History Graph

Search for Another Location

Airport or City:

Trip Planner

Search our weather history database for the weather conditions in past years. The results will help you decide how hot, cold, wet, or windy it might be!

Date:

Astronomy

Jan. 08, 2012 Rise Set
Actual Time 7:25 AM CST 5:26 PM CST
Civil Twilight 6:57 AM CST 5:54 PM CST
Nautical Twilight 6:26 AM CST 6:25 PM CST
Astronomical Twilight 5:56 AM CST 6:55 PM CST
Moon 5:10 PM CST (1/8) 6:44 AM CST (1/8)
Length of Visible Light 10h 56m
Length of Day
10h 01m
Full, 100% of the Moon is Illuminated
Jan 8
Full
Jan 9
Full
Jan 16
Last Quarter
Jan 23
New
Jan 30
First Quarter

Hourly Weather History & Observations

Time (CST) Temp. Windchill Dew Point Humidity Pressure Visibility Wind Dir Wind Speed Gust Speed Precip Events Conditions
12:55 AM 51.8 °F - 44.6 °F 76% 30.04 in 10.0 mi East 10.4 mph - N/A   Overcast
1:15 AM 51.8 °F - 42.8 °F 71% 30.04 in 10.0 mi East 12.7 mph 18.4 mph N/A   Overcast
1:35 AM 51.8 °F - 41.0 °F 67% 30.05 in 10.0 mi East 12.7 mph 16.1 mph N/A   Overcast
1:55 AM 51.8 °F - 41.0 °F 67% 30.05 in 10.0 mi East 10.4 mph - N/A   Overcast
2:15 AM 51.8 °F - 41.0 °F 67% 30.04 in 10.0 mi East 10.4 mph - N/A   Overcast
2:35 AM 51.8 °F - 41.0 °F 67% 30.05 in 10.0 mi East 10.4 mph - N/A   Overcast
2:55 AM 51.8 °F - 41.0 °F 67% 30.04 in 10.0 mi East 10.4 mph - N/A   Overcast
3:15 AM 51.8 °F - 41.0 °F 67% 30.04 in 10.0 mi East 9.2 mph 16.1 mph N/A   Overcast
3:35 AM 51.8 °F - 41.0 °F 67% 30.04 in 10.0 mi East 8.1 mph - N/A   Overcast
4:55 AM 50.0 °F - 41.0 °F 71% 30.04 in 10.0 mi East 9.2 mph - N/A   Overcast
5:55 AM 50.0 °F - 39.2 °F 66% 30.05 in 10.0 mi East 8.1 mph - N/A   Overcast
6:15 AM 50.0 °F - 41.0 °F 71% 30.06 in 10.0 mi East 5.8 mph - N/A   Overcast
6:55 AM 50.0 °F - 41.0 °F 71% 30.06 in 10.0 mi East 5.8 mph - N/A   Overcast
7:15 AM 50.0 °F - 41.0 °F 71% 30.07 in 10.0 mi East 4.6 mph - N/A   Overcast
7:35 AM 50.0 °F - 41.0 °F 71% 30.08 in 10.0 mi NE 4.6 mph - N/A   Overcast
7:55 AM 50.0 °F - 41.0 °F 71% 30.08 in 10.0 mi ENE 4.6 mph - N/A   Overcast
8:35 AM 50.0 °F - 42.8 °F 76% 30.10 in 10.0 mi East 6.9 mph - N/A   Overcast
8:55 AM 50.0 °F - 42.8 °F 76% 30.11 in 10.0 mi ENE 4.6 mph - N/A   Overcast
9:15 AM 50.0 °F - 42.8 °F 76% 30.12 in 10.0 mi ENE 5.8 mph - N/A   Overcast
9:55 AM 50.0 °F - 42.8 °F 76% 30.14 in 10.0 mi NE 6.9 mph - N/A   Overcast
10:35 AM 50.0 °F - 44.6 °F 82% 30.14 in 7.0 mi East 6.9 mph - N/A   Overcast
10:55 AM 51.8 °F - 44.6 °F 76% 30.14 in 7.0 mi NE 6.9 mph - N/A   Overcast
11:15 AM 51.8 °F - 44.6 °F 76% 30.14 in 7.0 mi NE 4.6 mph - N/A   Overcast
11:35 AM 51.8 °F - 44.6 °F 76% 30.13 in 5.0 mi East 6.9 mph - N/A   Overcast
11:55 AM 51.8 °F - 44.6 °F 76% 30.12 in 5.0 mi ENE 8.1 mph - N/A   Overcast
12:15 PM 51.8 °F - 46.4 °F 82% 30.12 in 5.0 mi ENE 5.8 mph - N/A   Overcast
12:55 PM 51.8 °F - 46.4 °F 82% 30.10 in 5.0 mi East 5.8 mph - N/A   Overcast
1:15 PM 51.8 °F - 46.4 °F 82% 30.09 in 7.0 mi ENE 5.8 mph - N/A   Overcast
1:35 PM 51.8 °F - 46.4 °F 82% 30.07 in 7.0 mi East 5.8 mph - N/A   Mostly Cloudy
1:55 PM 53.6 °F - 46.4 °F 77% 30.08 in 7.0 mi ENE 4.6 mph - N/A   Overcast
2:55 PM 53.6 °F - 46.4 °F 77% 30.08 in 5.0 mi SE 5.8 mph - N/A   Overcast
3:35 PM 51.8 °F - 46.4 °F 82% 30.11 in 7.0 mi South 3.5 mph - N/A   Overcast
4:15 PM 51.8 °F - 46.4 °F 82% 30.10 in 7.0 mi East 4.6 mph - N/A   Overcast
4:35 PM 51.8 °F - 46.4 °F 82% 30.10 in 7.0 mi ESE 4.6 mph - N/A   Scattered Clouds
5:15 PM 50.0 °F - 46.4 °F 87% 30.11 in 5.0 mi Calm Calm - N/A   Clear
5:35 PM 50.0 °F - 44.6 °F 82% 30.11 in 5.0 mi NE 3.5 mph - N/A   Clear
5:55 PM 50.0 °F - 44.6 °F 82% 30.12 in 5.0 mi Calm Calm - N/A   Mostly Cloudy
6:15 PM 50.0 °F - 44.6 °F 82% 30.13 in 5.0 mi Calm Calm - N/A   Overcast
6:55 PM 48.2 °F - 44.6 °F 87% 30.12 in 5.0 mi East 4.6 mph - N/A   Scattered Clouds
7:15 PM 48.2 °F - 44.6 °F 87% 30.12 in 5.0 mi East 4.6 mph - N/A   Scattered Clouds
7:35 PM 48.2 °F - 44.6 °F 87% 30.12 in 5.0 mi ENE 4.6 mph - N/A   Scattered Clouds
8:35 PM 46.4 °F 45.2 °F 44.6 °F 93% 30.11 in 5.0 mi NE 3.5 mph - N/A   Clear
8:55 PM 46.4 °F 44.3 °F 44.6 °F 93% 30.12 in 5.0 mi East 4.6 mph - N/A   Clear
9:15 PM 46.4 °F - 44.6 °F 93% 30.13 in 5.0 mi Calm Calm - N/A   Scattered Clouds
9:55 PM 46.4 °F 43.5 °F 44.6 °F 93% 30.14 in 5.0 mi NE 5.8 mph - N/A   Mostly Cloudy
10:15 PM 46.4 °F 44.3 °F 44.6 °F 93% 30.15 in 7.0 mi East 4.6 mph - N/A   Scattered Clouds
10:35 PM 46.4 °F 42.4 °F 44.6 °F 93% 30.16 in 7.0 mi SE 8.1 mph - N/A   Scattered Clouds
11:35 PM 46.4 °F 44.3 °F 42.8 °F 87% 30.16 in 7.0 mi NE 4.6 mph - N/A   Clear